www.pogodaiklimat.ru

Погода и климат >> Архив погоды >> Россия >> Челябинская область >> Кизильское


ПОГОДА в Кизильском

  • Прогноз погоды в Кизильском
  • Монитор погоды в Кизильском

АРХИВ ПОГОДЫ в Кизильском

Время (UTC), дата Ветер
(напр.,м/с)
 
Видим.   Явления Облачность Т
(С)
Тd
(С)
f
(%)
Тe
(С)
Тes
(С)
Комфортность P
(гПа)
Po
(гПа)
Тmin
(С)
Tmax
(С)
R
(мм)
R24
(мм)
S
(см)
21 12.07 ЮВ 5
{10}
10 км 1/1 600 м
[Sc]
+26.6 +6.4 28 +26 +26 жарко 1005.3 968.8
00 13.07 ЮВ 3
{11}
20 км 3/3 600 м
[Sc]
+25.1 +5.6 29 +25 +25 комфорт 1005.4 968.7
03 13.07 ЮВ 2 50 км 3/3 600 м
[Sc Ci fib]
+25.8 +7.4 31 +26 +29 жарко 1004.9 968.3 +23.8
06 13.07 Ю 3 50 км 8/5 600 м
[Cb calv Ac trans Ci sp]
+33.1 +3.9 16 +30 +34 жарко 1004.2 968.4
09 13.07 Ю 6-12
{12}
50 км 9/6 600 м
[Cb calv Cc]
+38.4 +1.4 10 +35 +37 очень
жарко
1002.7 967.6
12 13.07 ЮВ 5-11
{13}
50 км 8/5 600 м
[Cb calv Ci]
+38.2 -0.3 9 +34 +36 очень
жарко
1002.1 966.9
15 13.07 ЮВ 1
{11}
20 км 9/8 600 м
[Cb calv Ci fib]
+33.7 +8.2 21 +32 +32 жарко 1002.6 967.0 +39.8
18 13.07 ЮВ 4 10 км 8/8 600 м
[Cb calv]
+31.0 +4.5 19 +29 +29 жарко 1003.6 967.6
21 13.07 ЮВ 2 10 км 6/3 600 м
[Sc Ac lent Ci fib]
+25.6 +5.5 28 +25 +25 комфорт 1005.6 968.9
00 14.07 ЮВ 2 20 км 5/3 600 м
[Cb calv Ac lent Ci fib]
+22.2 +4.3 31 +22 +22 комфорт 1005.7 968.6
03 14.07 ЮВ 2 50 км 8/5 600 м
[Cb calv Ci]
+25.3 +5.3 28 +25 +27 комфорт 1005.7 968.9 +21.4
06 14.07 ЮВ 4 50 км 9/1 600 м
[Sc Ac trans Ci]
+31.9 +4.3 18 +30 +34 жарко 1004.5 968.6
09 14.07 ЮВ 3
{11}
50 км 9/3 600 м
[Cu hum Ac trans Ci]
+34.6 +4.0 15 +32 +37 жарко 1003.3 967.8
12 14.07 Ю 5
{11}
50 км 9/4 600 м
[Cb calv Ac cast Ci fib]
+34.9 +5.2 16 +32 +34 жарко 1002.4 966.9
15 14.07 В 1
{11}
20 км 9/9 600 м
[Cb calv]
+30.3 +9.0 27 +30 +30 жарко 1003.2 967.2 +36.4
18 14.07 Ю 1 10 км 9/9 600 м
[Cb calv]
+26.6 +8.6 32 +27 +27 жарко 1003.1 966.6
21 14.07 В 3 10 км 4/3 600 м
[Cb calv Ci fib]
+25.1 +9.1 36 +26 +26 жарко 1001.2 964.7
00 15.07 Ю 1 10 км в посл. час ливневой дождь 10/10 600 м
[Cb calv]
+24.5 +4.2 27 +24 +24 комфорт 999.8 963.2
03 15.07 В 7-12
{15}
20 км 8/8 600 м
[Cb calv]
+26.2 +5.7 27 +26 +26 жарко 996.0 959.8 +23.9
06 15.07 Ю 6-13
{17}
50 км 3/3 600 м
[Cb calv]
+30.3 +11.5 31 +31 +34 жарко 994.9 959.3
09 15.07 Ю 6
{16}
50 км 4/3 600 м
[Cb calv Ci fib]
+27.5 +12.4 39 +29 +33 жарко 997.6 961.5
12 15.07 ЮЗ 8-14
{15}
50 км 6/6 600 м
[Cu med, cong]
+24.1 +10.9 43 +25 +26 комфорт 1000.3 963.7
15 15.07 ЮЗ 5
{16}
20 км 6/6 600 м
[Sc]
+19.5 +9.6 53 +20 +20 1003.8 966.5 +30.4
18 15.07 З 4
{11}
10 км 9/9 600 м
[Cb calv]
+17.2 +8.9 58 +17 +17 1005.9 968.2
21 15.07 З 3 10 км ясно +15.3 +8.7 65 +15 +15 1007.0 969.0
00 16.07 ЮЗ 1 20 км 1/0
[Ci fib]
+14.2 +8.9 70 +15 +15 1008.4 970.3
03 16.07 З 5
{11}
50 км 3/1 600 м
[Cu hum Ci fib]
+19.0 +10.5 58 +20 +21 1008.9 971.3 +14.0
06 16.07 СЗ 4
{14}
50 км 3/3 600 м
[Cu med, cong]
+23.1 +8.9 40 +24 +31 комфорт 1009.1 972.0
09 16.07 СЗ 4
{11}
50 км 1/1 600 м
[Cu hum]
+26.2 +6.2 28 +26 +35 жарко 1009.4 972.6
12 16.07 СЗ 4
{11}
50 км 3/0
[Ci]
+27.3 +5.5 25 +26 +31 жарко 1009.9 973.2
15 16.07 СЗ 3 20 км 3/0
[Ci]
+25.3 +6.0 29 +25 +25 комфорт 1010.7 973.8 +27.3
18 16.07 СЗ 2 10 км 4/0
[Ci]
+18.7 +8.5 51 +20 +20 1013.4 975.6
21 16.07 СЗ 1 10 км 1/0
[Ci fib]
+14.2 +8.9 70 +15 +15 1014.8 976.4
00 17.07 СЗ 1 20 км 3/3 600 м
[Sc Ci fib]
+11.6 +8.1 79 +11 +11 1016.3 977.5
03 17.07 С 1 20 км 9/9 600 м
[Cb calv]
+14.3 +9.4 72 +15 +15 1016.3 977.9 +11.4
06 17.07 С 2 20 км 9/9 600 м
[Cb calv]
+19.9 +11.4 58 +22 +23 комфорт 1015.1 977.5
09 17.07 СЗ 1 50 км 8/6 600 м
[Cu Sc Cc]
+25.5 +9.5 36 +26 +33 жарко 1013.4 976.5
12 17.07 В 1 50 км 6/3 600 м
[Cu Sc Cc]
+28.4 +6.9 26 +28 +33 жарко 1011.6 975.1
15 17.07 СВ 3 20 км 8/6 600 м
[Cb calv Ci]
+26.1 +7.8 31 +26 +26 жарко 1011.3 974.5 +29.0
18 17.07 СЗ 3 10 км 9/9 600 м
[Cb calv]
+22.8 +9.8 44 +25 +25 комфорт 1012.3 975.1
21 17.07 С 3 10 км 10/10 600 м
[Cb calv]
+19.7 +13.0 65 +22 +22 комфорт 1012.7 975.2
00 18.07 СЗ 2 20 км 6/5 600 м
[Cb calv Ci fib]
+18.0 +12.6 71 +19 +19 1012.7 974.9
03 18.07 СЗ 2 20 км 4/3 600 м
[Cb calv Ci fib]
+19.8 +12.5 63 +22 +25 комфорт 1012.1 974.6 +16.9
06 18.07 Ю 1 50 км 5/3 600 м
[Sc diur, vesp Ac cuf]
+27.6 +8.6 30 +27 +36 жарко 1010.3 973.7
09 18.07 Ю 2 50 км 3/1 600 м
[Cu hum Ac trans Ci fib]
+34.3 +3.6 15 +32 +44 жарко 1007.8 972.0
12 18.07 ЮЗ 4
{13}
50 км 9/5 600 м
[Cb calv Ac cast Ci sp]
+35.3 +2.1 12 +32 +33 жарко 1006.2 970.6
15 18.07 З 6-14
{14}
20 км 10/10 600 м
[Cb calv]
+29.2 +6.6 24 +28 +28 жарко 1007.9 971.6 +35.9
18 18.07 В 2
{14}
10 км в посл. час гроза {ливн. осадки} 9/9 600 м
[Cb cap]
+26.5 +8.4 32 +27 +27 жарко 1007.6 971.0
21 18.07 С 1 10 км 8/3 600 м
[Cb calv Ci sp]
+20.5 +11.3 56 +23 +23 комфорт 1008.7 971.3
00 19.07 штиль 0 10 км 8/6 600 м
[Cb calv Ac lent]
+17.9 +11.1 64 +18 +18 1009.4 971.7
03 19.07 Ю 1 20 км 9/8 600 м
[Cb calv Ac trans Ci fib]
+21.9 +12.4 55 +24 +25 комфорт 1009.7 972.5 +17.4 0.0
06 19.07 Ю 2 50 км 8/8 600 м
[Cb calv]
+29.2 +10.5 31 +29 +32 жарко 1009.1 972.8
09 19.07 ЮВ 5 20 км 9/9 600 м
[Cb calv]
+31.3 +7.9 23 +30 +31 жарко 1008.6 972.6
12 19.07 В 4
{10}
20 км в посл. час ливневой дождь 9/9 600 м
[Cb calv]
+29.3 +9.8 30 +29 +30 жарко 1008.3 972.0
15 19.07 ЮВ 2 20 км 9/9 600 м
[Cb calv]
+28.7 +9.4 30 +29 +29 жарко 1008.4 972.1 +33.2 0.0

 

Местоположение метеостанции Кизильское (Челябинская область, Россия): широта 52.72 долгота 58.88 высота над уровнем моря 323 м.

В архиве по умолчанию представлена погода в Кизильском за последнюю неделю. Архивные данные за месяц целиком и за предыдущие месяцы, начиная с января 2011 года, Вы можете получить, выбрав интересующий диапазон дат из раскрывающегося списка и нажав кнопку "Ввод!".


*Определитесь, кто Вы:
робот инопланетянин человек

Внимание! Время в таблицах - всемирное. Для получения местного времени необходимо прибавить поправку, которая равна 5 ч.

Смотрите также архив погоды в соседних городах и на ближайших метеорологических станциях:

Погода в Магнитогорске (Челябинская область, Россия) (71 км)
Погода в Бредах (Челябинская область, Россия) (104 км)
Погода в Энергетике (Оренбургская область, Россия) (106 км)
Погода в Акъяре (Башкирия, Россия) (106 км)
Погода в Старосубхангулово (Башкирия, Россия) (106 км)
Погода в Айдырля (Оренбургская область, Россия) (109 км)
Погода в Зилаире (Башкирия, Россия) (115 км)
Погода в Карталы (Челябинская область, Россия) (126 км)
Погода в Шульган-Таше (Башкирия, Россия) (127 км)
Погода в Верхнеуральске (Челябинская область, Россия) (131 км)

Пояснения к столбцам:

Ветер - указаны скорость ветра в м/с - средняя за 10 мин, порывы в срок и между сроками (в фигурных скобках) и направление, откуда дует ветер: С - северный, СВ - северо-восточный, В - восточный, ЮВ - юго-восточный, Ю - южный, ЮЗ - юго-западный, З - западный, СЗ - северо-западный.
Видимость - горизонтальная дальность видимости в метрах или километрах. При видимости от 1 до 10 км при отсутствии осадков обычно наблюдается дымка, при ухудшении видимости до 1 км и менее - туман. В сухую погоду видимость может ухудшаться дымом, пылью или мглою.
Явления - указаны атмосферные явления, наблюдавшиеся в срок или в последний час перед сроком; фигурными скобками обозначены явления, наблюдавшиеся между сроками (за 1-3 часа до срока); квадратными скобками обозначены град или гололедные отложения с указанием их диаметра в мм.
Облачность - указаны через наклонную черту общая и нижняя облачность в баллах и высота нижней границы облаков в метрах; квадратными скобками обозначены формы облаков: Ci - перистые, Cs - перисто-слоистые, Cc - перисто-кучевые, Ac - высококучевые, As - высокослоистые, Sc - слоисто-кучевые, Ns - слоисто-дождевые, Cu - кучевые, Cb - кучево-дождевые. Подробнее классификацию облаков см. в Атласе облаков (PDF).
T - Температура воздуха - температура, измеренная на высоте 2 м над землей.
Td - Температура точки росы - температура, при понижении до которой содержащийся в воздухе водяной пар достигнет насыщения.
f - Относительная влажность воздуха - влажноcть воздуха, измеренная на высоте 2 м над землей.
Te - Эффективная температура - температура, которую ощущает одетый по сезону человек в тени. Характеристика душности погоды. При расчете учитывается влияние влажности воздуха и скорости ветра на теплоощущения человека.
Tes - Эффективная температура на солнце - температура, которую ощущает человек, с поправкой на солнечный нагрев. Характеристика знойности погоды. Зависит от высоты солнца над горизонтом, облачности и скорости ветра. Ночью, в пасмурную погоду, а также при ветре 12 м/с и более поправка равна нулю.
P - Атмосферное давление - приведенное к уровню моря атмосферное давление.
Po - Атмосферное давление - измеренное на уровне метеостанции атмосферное давление.
Tmin - Минимальная температура - минимум температуры воздуха на высоте 2 м над землей.
Tmax - Максимальная температура - максимум температуры воздуха на высоте 2 м над землей.
R - Количество осадков - Количество выпавших осадков за период времени, мм. При наведении курсора мыши на число - период времени, за который выпало указанное количество осадков.
R24 - Количество осадков - Количество выпавших осадков за 24 часа, мм.
S - Снежный покров - Высота снежного покрова, см. При наведении курсора мыши на число - состояние снежного покрова и степень покрытия местности в баллах.